Flag for Germany Weather past 2 weeks in Backnang, Baden-Württemberg, Germany

Now
66 °F

Sunny.


Feels Like: 66 °F
Forecast: 55 / 70 °F
Wind: 1 mph from Southeast

Location: Oehringen

Current Time: Aug 28, 2014 at 12:03:57 PM

Latest Report: Aug 28, 2014 at 11:00 AM


Visibility: 19 mi

Pressure: 30.06 "Hg

Humidity: 67%

Dew point: 55 °F

Location of BacknangLocation

Historic Weather in Backnang — Graph

°F

Backnang temperature yesterday

Maximum temperature yesterday: 69 °F (at 6:00 PM)
Minimum temperature yesterday: 55 °F (at 11:00 PM)
Average temperature yesterday: 61 °F

Past Weeks' High & Low Weather Summary

 TemperatureHumidityPressure
High70 °F (Aug 17, 5:00 PM)97% (Aug 26, 11:00 PM)30.16 "Hg (Aug 26, 11:00 PM)
Low48 °F (Aug 20, 7:00 AM)34% (Aug 22, 6:00 PM)29.66 "Hg (Aug 13, 7:00 PM)
Average59 °F75%29.97 "Hg
* Reported Aug 13 11:00 AM — Aug 28 11:00 AM, Backnang, Weather by CustomWeather, © 2014

Note: Actual official high and low records may vary slightly from our data, if they occured in-between our weather recording intervals... More about our weather records

Advertising

Backnang weather history for previous 24 hours

 ConditionsComfort  
Time TempWeatherWind HumidityBarometerVisibility
11:00 AM
Aug 28
66 °FSunny.1 mph67%30.06 "Hg19 mi
10:00 AM62 °FPassing clouds.2 mph79%30.07 "Hg11 mi
9:00 AM56 °FOvercast.1 mph88%30.09 "Hg7 mi
8:00 AM53 °FOvercast.1 mph92%30.09 "Hg7 mi
7:00 AM50 °FFog.2 mph95%30.08 "Hg4 mi
6:00 AM51 °FFog.2 mph95%30.07 "Hg4 mi
5:00 AM51 °FClear.2 mph94%30.07 "Hg6 mi
4:00 AM51 °FClear.1 mph95%30.07 "Hg6 mi
3:00 AM52 °FClear.1 mph93%30.08 "Hg7 mi
2:00 AM52 °FClear.2 mph94%30.09 "Hg7 mi
1:00 AM54 °FClear.1 mph91%30.08 "Hg8 mi
12:00 AM54 °FClear.1 mph90%30.08 "Hg19 mi
11:00 PM
Aug 27
55 °FClear.1 mph91%30.07 "Hg19 mi
10:00 PM57 °FClear.2 mph88%30.06 "Hg25 mi
9:00 PM60 °FPassing clouds.2 mph81%30.05 "Hg31 mi
8:00 PM66 °FSunny.1 mph59%30.03 "Hg43 mi
7:00 PM69 °FSunny.1 mph49%30.02 "Hg43 mi
6:00 PM69 °FSunny.3 mph51%30.01 "Hg43 mi
5:00 PM69 °FScattered clouds.1 mph48%30.01 "Hg43 mi
4:00 PM69 °FPassing clouds.1 mph48%30.01 "Hg31 mi
3:00 PM66 °FOvercast.2 mph58%30.01 "Hg43 mi
2:00 PM67 °FPartly sunny.2 mph53%30.01 "Hg28 mi
1:00 PM65 °FPassing clouds.2 mph57%30.01 "Hg31 mi
12:00 PM62 °FOvercast.3 mph71%30.01 "Hg40 mi
Weather by CustomWeather, © 2014

See weather overviewHow to use our weather pages